N1ADJ Weather Reports


time (UTC)temp
F
wind
direction
speed
knots
gust
knots
rain 1hr
in
rain 24hr
in
rain mn
in
humidity
%
barometer
mb
20260508060022 45 315 2.6 7.8 0.00 0.00 0.00 59 1006.2
20260508055523 45 315 0.9 5.2 0.00 0.00 0.00 60 1006.2
20260508055019 45 315 3.5 8.7 0.00 0.00 0.00 60 1006.3
20260508054517 44 315 2.6 7.8 0.00 0.01 0.00 63 1006.3
20260508054024 43 315 1.7 7.0 0.00 0.01 0.00 64 1006.3
20260508053519 43 315 1.7 5.2 0.00 0.01 0.00 64 1006.4
20260508053037 43 0.0 1.7 0.00 0.01 0.00 66 1006.6
20260508052537 43 0.0 1.7 0.00 0.01 0.00 68 1006.6
20260508052017 43 0.0 2.6 0.00 0.01 0.00 64 1006.7
20260508051519 43 0.0 2.6 0.00 0.01 0.00 66 1006.7
20260508051019 43 0.0 0.0 0.00 0.01 0.00 66 1006.8
20260508050523 43 0.0 0.9 0.00 0.01 0.00 67 1006.8
20260508050018 43 0.0 5.2 0.00 0.01 0.00 65 1007.0
20260508045518 43 270 1.7 5.2 0.00 0.01 0.00 65 1006.8
20260508045019 43 315 0.9 3.5 0.00 0.01 0.00 64 1006.8
20260508044522 42 315 0.9 3.5 0.00 0.02 0.00 66 1006.8
20260508044017 42 0.0 0.0 0.00 0.04 0.00 69 1007.0
20260508043517 43 0.0 0.9 0.00 0.05 0.00 69 1007.0
20260508043037 43 0.0 1.7 0.00 0.07 0.00 70 1007.0
20260508042517 43 0.0 2.6 0.00 0.09 0.00 70 1006.9
20260508042017 43 0.0 0.9 0.00 0.11 0.00 68 1007.0
20260508041537 43 270 0.9 3.5 0.00 0.13 0.00 68 1007.0
20260508041037 43 0.0 1.7 0.00 0.14 0.00 67 1007.0
20260508040517 44 0.0 3.5 0.00 0.15 0.00 65 1006.9
20260508040018 44 0.0 0.0 0.00 0.16 0.16 65 1007.2
20260508035523 45 0.0 0.0 0.00 0.16 0.16 66 1007.1
20260508035018 45 0.0 0.0 0.00 0.16 0.16 68 1007.6
20260508034523 45 0.0 1.7 0.00 0.16 0.16 66 1007.1
20260508034018 45 0.0 0.0 0.00 0.16 0.16 63 1007.0
20260508033523 46 0.0 0.0 0.00 0.16 0.16 62 1007.0
20260508033023 46 0.0 0.0 0.00 0.16 0.16 61 1006.9
20260508032602 46 0.0 0.0 0.00 0.16 0.16 61 1007.0
20260508032043 47 0.0 0.0 0.00 0.16 0.16 58 1006.9
20260508031538 47 0.0 0.0 0.00 0.16 0.16 59 1007.0
20260508031023 48 0.0 0.0 0.00 0.17 0.16 55 1007.1
20260508030522 48 0.0 0.0 0.00 0.17 0.16 54 1007.0
20260508030023 49 0.0 0.0 0.00 0.17 0.16 53 1007.0
20260508025522 49 0.0 1.7 0.00 0.17 0.16 52 1007.0
20260508025020 49 0.0 1.7 0.00 0.17 0.16 51 1007.1
20260508024523 50 0.0 2.6 0.00 0.17 0.16 49 1007.0
20260508024103 50 0.0 2.6 0.00 0.17 0.16 48 1006.9
20260508023519 50 0.0 1.7 0.00 0.17 0.16 48 1006.9
20260508023018 50 0.0 1.7 0.00 0.17 0.16 48 1006.8
20260508022537 51 0.0 3.5 0.00 0.17 0.16 49 1006.8
20260508022022 51 315 0.9 3.5 0.00 0.17 0.16 47 1006.7
20260508021517 51 315 2.6 8.7 0.00 0.17 0.16 46 1006.7
20260508021018 51 315 1.7 7.0 0.00 0.17 0.16 48 1006.7
20260508020520 51 315 1.7 7.0 0.00 0.17 0.16 48 1006.7
20260508020022 51 0.0 3.5 0.00 0.17 0.16 49 1006.4
20260508015542 51 315 0.9 6.1 0.00 0.17 0.16 52 1006.6
20260508015018 51 338 0.9 4.3 0.00 0.18 0.16 53 1006.6
20260508014517 51 0.0 0.9 0.00 0.18 0.16 53 1006.6
20260508014102 52 315 0.9 4.3 0.00 0.18 0.16 48 1006.5
20260508013537 52 0.0 3.5 0.00 0.18 0.16 49 1006.4
20260508013019 53 0.0 4.3 0.00 0.18 0.16 48 1006.2
20260508012518 53 0.0 1.7 0.00 0.19 0.16 46 1006.2
20260508012020 53 0.0 2.6 0.00 0.19 0.16 44 1006.2
20260508011542 53 315 0.9 3.5 0.00 0.19 0.16 45 1006.1
20260508011020 54 293 0.9 3.5 0.00 0.19 0.16 45 1005.8
20260508010518 54 315 0.9 7.0 0.00 0.19 0.16 45 1005.8
20260508010023 54 315 2.6 7.8 0.00 0.19 0.16 44 1005.7
20260508005518 54 315 1.7 5.2 0.00 0.19 0.16 43 1005.7
20260508005023 55 315 2.6 7.8 0.00 0.20 0.16 42 1005.5
20260508004522 55 338 2.6 5.2 0.00 0.20 0.16 42 1005.4
20260508004022 55 315 3.5 7.0 0.00 0.20 0.16 42 1005.3
20260508003537 55 315 2.6 7.0 0.00 0.21 0.16 41 1005.1
20260508003017 56 315 2.6 7.8 0.00 0.21 0.16 41 1005.2
20260508002522 56 338 2.6 7.8 0.00 0.21 0.16 41 1005.1
20260508002018 56 315 1.7 6.1 0.00 0.21 0.16 42 1005.0
20260508001517 57 0.0 2.6 0.00 0.21 0.16 41 1004.9
20260508001019 57 315 1.7 7.0 0.00 0.21 0.16 40 1004.9
20260508000519 57 315 2.6 8.7 0.00 0.21 0.16 40 1004.9
20260508000018 57 315 1.7 4.3 0.00 0.21 0.16 40 1004.9
20260507235520 58 315 1.7 4.3 0.00 0.21 0.16 39 1004.6
20260507235040 58 315 1.7 4.3 0.00 0.21 0.16 39 1004.7
20260507234519 58 315 1.7 5.2 0.00 0.21 0.16 39 1004.8
20260507234038 58 315 2.6 5.2 0.00 0.21 0.16 38 1004.8
20260507233519 59 315 2.6 5.2 0.00 0.21 0.16 38 1004.6
20260507233021 59 315 2.6 7.0 0.00 0.21 0.16 37 1004.6
20260507232518 59 315 3.5 7.0 0.00 0.21 0.16 37 1004.6
20260507232018 59 315 1.7 4.3 0.00 0.21 0.16 38 1004.4
20260507231519 60 315 1.7 7.0 0.00 0.21 0.16 37 1004.2
20260507231038 60 315 1.7 7.0 0.00 0.21 0.16 36 1004.3
20260507230542 60 315 3.5 8.7 0.00 0.21 0.16 36 1004.2
20260507230018 60 315 4.3 8.7 0.00 0.21 0.16 36 1004.0
20260507225518 61 315 6.1 13.0 0.00 0.21 0.16 34 1004.0
20260507225017 61 315 3.5 8.7 0.00 0.21 0.16 36 1004.0
20260507224517 61 315 3.5 10.4 0.00 0.21 0.16 34 1003.8
20260507224017 61 270 3.5 13.9 0.00 0.21 0.16 34 1003.8
20260507223518 61 293 2.6 8.7 0.00 0.21 0.16 34 1003.7
20260507223017 61 315 4.3 9.6 0.00 0.21 0.16 33 1003.7
20260507222522 62 315 2.6 7.8 0.00 0.21 0.16 32 1003.7
20260507222020 62 293 3.5 11.3 0.00 0.22 0.16 33 1003.5
20260507221517 62 315 6.1 11.3 0.00 0.22 0.16 35 1003.5
20260507221018 63 270 4.3 10.4 0.00 0.22 0.16 34 1003.6
20260507220519 63 270 6.1 10.4 0.00 0.23 0.16 35 1003.5
20260507220024 63 293 5.2 12.2 0.00 0.23 0.16 33 1003.3
20260507215523 63 270 7.0 13.9 0.00 0.23 0.16 33 1003.4
20260507215019 63 270 4.3 16.5 0.00 0.24 0.16 34 1003.6
20260507214517 63 270 6.1 15.6 0.00 0.24 0.16 33 1003.5
20260507214038 63 270 6.1 12.2 0.00 0.25 0.16 33 1003.5
20260507213538 63 315 5.2 12.2 0.00 0.25 0.16 32 1003.4
20260507213031 64 315 2.6 6.1 0.00 0.26 0.16 35 1003.6
20260507212539 64 270 5.2 12.2 0.00 0.26 0.16 34 1003.6
20260507212020 64 338 4.3 11.3 0.00 0.27 0.16 33 1003.5
20260507211520 64 270 5.2 12.2 0.00 0.28 0.16 36 1003.5
20260507211018 64 270 3.5 7.8 0.00 0.29 0.16 36 1003.4
20260507210520 64 270 7.8 14.8 0.00 0.30 0.16 35 1003.5
20260507210018 64 293 5.2 14.8 0.00 0.30 0.16 33 1003.3
20260507205520 65 270 5.2 13.9 0.00 0.31 0.16 34 1003.4
20260507205020 64 270 7.8 15.6 0.00 0.31 0.16 35 1003.2
20260507204523 64 270 11.3 17.4 0.00 0.32 0.16 37 1003.0
20260507204019 65 270 7.0 14.8 0.00 0.32 0.16 33 1003.2
20260507203522 65 270 7.8 13.9 0.00 0.32 0.16 34 1002.9
20260507203042 65 270 6.1 13.0 0.00 0.32 0.16 35 1003.1
20260507202518 65 270 8.7 19.1 0.00 0.33 0.16 30 1002.9
20260507202017 65 270 8.7 13.9 0.00 0.34 0.16 37 1003.0
20260507201519 65 270 7.8 16.5 0.00 0.34 0.16 34 1003.1
20260507201039 65 270 9.6 21.7 0.00 0.34 0.16 29 1003.0
20260507200523 65 270 6.1 13.0 0.00 0.35 0.16 34 1003.1
20260507200017 65 270 5.2 10.4 0.00 0.36 0.16 34 1003.0
20260507195537 64 270 8.7 16.5 0.00 0.36 0.16 34 1003.1
20260507195038 65 270 8.7 14.8 0.00 0.38 0.16 36 1003.1
20260507194517 65 270 7.8 15.6 0.00 0.39 0.16 34 1003.1
20260507194017 65 270 7.0 17.4 0.00 0.40 0.16 41 1003.2
20260507193520 65 270 6.1 13.0 0.00 0.41 0.16 42 1003.3
20260507193021 65 270 3.5 9.6 0.00 0.42 0.16 48 1003.4
20260507192519 65 270 6.1 13.9 0.00 0.43 0.16 46 1003.4
20260507192044 65 270 10.4 20.0 0.00 0.44 0.16 46 1003.4
20260507191517 64 270 8.7 15.6 0.00 0.46 0.16 44 1003.4
20260507191018 64 270 9.6 18.2 0.00 0.46 0.16 46 1003.4
20260507190520 64 248 8.7 18.2 0.00 0.46 0.16 53 1003.4
20260507190023 64 248 8.7 17.4 0.00 0.46 0.16 50 1003.4
20260507185521 63 248 8.7 15.6 0.00 0.46 0.16 52 1003.4
20260507185021 63 225 7.0 12.2 0.00 0.46 0.16 54 1003.4
20260507184518 63 225 5.2 11.3 0.00 0.46 0.16 56 1003.4
20260507184020 63 225 4.3 8.7 0.00 0.46 0.16 57 1003.5
20260507183518 64 203 3.5 6.1 0.00 0.46 0.16 61 1003.5
20260507183019 65 225 3.5 7.8 0.00 0.46 0.16 60 1003.6
20260507182522 64 203 3.5 7.8 0.00 0.46 0.16 62 1003.5
20260507182017 63 180 3.5 7.0 0.00 0.46 0.16 62 1003.5
20260507181522 62 225 3.5 7.0 0.00 0.46 0.16 66 1003.6
20260507181021 61 203 3.5 9.6 0.00 0.46 0.16 68 1003.8
20260507180539 61 203 5.2 10.4 0.00 0.46 0.16 64 1003.8
20260507180019 60 225 4.3 10.4 0.00 0.46 0.16 66 1003.9
20260507175520 59 225 5.2 9.6 0.00 0.46 0.16 67 1003.8
20260507175019 59 203 5.2 12.2 0.00 0.46 0.16 66 1004.0
20260507174516 59 225 6.1 13.9 0.00 0.46 0.16 66 1004.0
20260507174021 58 225 6.1 13.9 0.00 0.46 0.16 69 1004.2
20260507173519 57 203 5.2 10.4 0.00 0.46 0.16 70 1004.1
20260507173017 57 203 5.2 10.4 0.00 0.46 0.16 70 1004.2
20260507172521 57 225 5.2 12.2 0.00 0.46 0.16 69 1004.1
20260507172021 58 225 7.8 14.8 0.00 0.46 0.16 68 1004.2
20260507171520 58 248 7.0 12.2 0.00 0.46 0.16 71 1004.4
20260507171019 57 225 5.2 13.0 0.00 0.46 0.16 72 1004.4
20260507170516 57 225 5.2 9.6 0.00 0.46 0.16 73 1004.4
20260507170125 57 225 7.0 13.0 0.00 0.46 0.16 71 1004.5
20260507165521 58 225 7.0 13.0 0.00 0.46 0.16 73 1004.5
20260507165018 59 225 7.0 15.6 0.00 0.46 0.16 71 1004.3
20260507164519 60 225 7.0 15.6 0.00 0.46 0.16 70 1004.2
20260507164017 61 225 4.3 9.6 0.00 0.46 0.16 66 1004.3
20260507163524 61 225 4.3 9.6 0.00 0.46 0.16 66 1004.4
20260507163018 62 225 6.1 13.0 0.00 0.46 0.16 66 1004.3
20260507162518 61 225 3.5 7.8 0.00 0.46 0.16 67 1004.4
20260507162018 61 225 3.5 7.0 0.00 0.46 0.16 65 1004.4
20260507161526 62 225 3.5 7.0 0.00 0.46 0.16 65 1004.6
20260507161016 61 225 5.2 12.2 0.00 0.46 0.16 66 1004.6
20260507160538 61 225 5.2 11.3 0.00 0.46 0.16 61 1004.8
20260507160016 60 225 7.0 12.2 0.00 0.46 0.16 61 1004.8
20260507155518 60 225 6.1 10.4 0.00 0.46 0.16 63 1004.8
20260507155043 60 225 7.0 11.3 0.00 0.46 0.16 62 1004.9
20260507154516 60 248 7.0 10.4 0.00 0.46 0.16 66 1004.9
20260507154036 60 225 5.2 10.4 0.00 0.46 0.16 62 1005.0
20260507153537 60 225 5.2 10.4 0.00 0.46 0.16 67 1005.2
20260507153016 60 203 4.3 7.0 0.00 0.46 0.16 65 1004.9
20260507152538 60 203 3.5 7.0 0.00 0.46 0.16 65 1005.1
20260507152016 60 203 4.3 6.1 0.00 0.46 0.16 63 1005.2
20260507151527 60 248 6.1 13.0 0.00 0.46 0.16 63 1005.1
20260507151017 61 68 0.9 2.6 0.00 0.46 0.16 63 1005.1
20260507150520 61 45 1.7 3.5 0.00 0.46 0.16 65 1005.2
20260507150017 60 315 3.5 7.8 0.00 0.46 0.16 61 1005.3
20260507145516 60 225 3.5 7.0 0.00 0.46 0.16 66 1005.4
20260507145037 59 270 4.3 10.4 0.00 0.46 0.16 66 1005.5
20260507144538 59 315 1.7 4.3 0.00 0.46 0.16 64 1005.3
20260507144022 59 270 4.3 8.7 0.00 0.46 0.16 66 1005.5
20260507143516 58 225 2.6 5.2 0.00 0.46 0.16 66 1005.5
20260507143017 58 270 3.5 9.6 0.00 0.46 0.16 68 1005.6
20260507142519 58 225 4.3 10.4 0.00 0.46 0.16 72 1005.7
20260507142019 58 270 3.5 7.8 0.00 0.46 0.16 69 1005.8
20260507141517 57 270 3.5 9.6 0.00 0.46 0.16 72 1005.8
20260507141016 57 293 3.5 7.8 0.00 0.46 0.16 70 1005.8
20260507140517 57 270 4.3 9.6 0.00 0.46 0.16 68 1005.8
20260507140017 57 270 4.3 8.7 0.00 0.46 0.16 72 1005.9
20260507135517 56 270 3.5 7.8 0.00 0.46 0.16 74 1005.8
20260507135016 56 270 5.2 9.6 0.00 0.46 0.16 73 1006.0
20260507134518 56 270 3.5 9.6 0.00 0.46 0.16 72 1006.0
20260507134018 56 315 2.6 7.8 0.00 0.46 0.16 73 1006.0
20260507133520 55 315 3.5 7.0 0.00 0.46 0.16 75 1005.9
20260507133018 55 270 1.7 6.1 0.00 0.46 0.16 71 1006.2
20260507132519 55 23 2.6 6.1 0.00 0.46 0.16 75 1006.1
20260507132021 55 315 4.3 7.8 0.00 0.46 0.16 73 1006.2
20260507131518 55 270 3.5 7.8 0.00 0.46 0.16 76 1006.0
20260507131018 54 270 1.7 6.1 0.00 0.46 0.16 77 1006.1
20260507130538 54 338 2.6 5.2 0.00 0.46 0.16 77 1006.1
20260507130018 54 315 3.5 7.8 0.00 0.46 0.16 78 1006.3
20260507125518 53 270 3.5 7.8 0.00 0.46 0.16 78 1006.3
20260507125018 53 270 2.6 5.2 0.00 0.46 0.16 79 1006.3
20260507124518 53 270 5.2 9.6 0.00 0.46 0.16 78 1006.5
20260507124023 52 293 3.5 7.8 0.00 0.46 0.16 81 1006.4
20260507123538 52 270 5.2 10.4 0.00 0.46 0.16 81 1006.4
20260507123018 52 270 4.3 8.7 0.00 0.46 0.16 81 1006.4
20260507122518 51 270 4.3 8.7 0.00 0.46 0.16 82 1006.4
20260507122018 51 315 4.3 9.6 0.00 0.46 0.16 81 1006.1
20260507121518 51 315 4.3 11.3 0.00 0.46 0.16 84 1006.2
20260507121019 50 315 3.5 7.8 0.00 0.46 0.16 84 1006.1
20260507120518 50 270 2.6 6.1 0.00 0.46 0.16 87 1006.3
20260507120018 49 293 3.5 7.8 0.00 0.46 0.16 87 1006.1
20260507115518 49 270 2.6 5.2 0.00 0.46 0.16 89 1006.3
20260507115018 48 270 0.9 2.6 0.00 0.46 0.16 91 1006.1
20260507114525 48 293 0.9 4.3 0.00 0.46 0.16 90 1006.2
20260507114019 48 293 1.7 4.3 0.00 0.46 0.16 91 1006.1
20260507113518 48 315 1.7 4.3 0.00 0.46 0.16 92 1006.1
20260507113018 48 270 1.7 6.1 0.00 0.46 0.16 93 1006.4
20260507112518 48 270 0.9 4.3 0.00 0.46 0.16 93 1006.4
20260507112019 48 0.0 0.0 0.00 0.46 0.16 93 1006.3
20260507111517 48 0.0 0.0 0.00 0.46 0.16 93 1006.5
20260507111019 48 0.0 0.0 0.00 0.46 0.16 94 1006.6
20260507110518 48 0.0 0.0 0.00 0.46 0.16 94 1006.5
20260507110028 48 0.0 0.0 0.00 0.46 0.16 94 1006.1
20260507105518 48 0.0 0.0 0.00 0.46 0.16 94 1006.3
20260507105020 48 0.0 0.0 0.00 0.46 0.16 94 1006.7
20260507104519 47 0.0 0.0 0.00 0.46 0.16 94 1006.9
20260507104018 47 0.0 0.0 0.00 0.46 0.16 94 1006.4
20260507103518 47 270 0.9 2.6 0.00 0.46 0.16 94 1006.4
20260507103020 47 270 1.7 3.5 0.00 0.46 0.16 93 1006.7
20260507102518 47 293 0.9 2.6 0.00 0.46 0.16 93 1006.3
20260507102021 47 293 0.9 3.5 0.00 0.46 0.16 93 1006.2
20260507101517 47 270 1.7 2.6 0.00 0.46 0.16 93 1006.3
20260507101043 47 270 1.7 5.2 0.00 0.46 0.16 93 1006.5
20260507100519 47 270 2.6 5.2 0.00 0.46 0.16 93 1006.2
20260507100027 47 293 0.9 2.6 0.00 0.46 0.16 93 1006.4
20260507095523 47 315 0.9 2.6 0.00 0.46 0.16 93 1005.9
20260507095017 47 0.0 2.6 0.00 0.46 0.16 93 1005.9
20260507094539 47 0.0 2.6 0.00 0.46 0.16 93 1005.8
20260507094019 47 270 1.7 5.2 0.00 0.46 0.16 93 1006.3
20260507093519 47 315 1.7 4.3 0.00 0.46 0.16 92 1006.0
20260507093019 47 315 1.7 4.3 0.00 0.46 0.16 92 1005.3
20260507092520 47 315 1.7 4.3 0.00 0.46 0.16 92 1005.5
20260507092018 47 338 0.9 2.6 0.00 0.46 0.16 93 1005.5
20260507091538 47 338 1.7 4.3 0.00 0.46 0.16 92 1005.7
20260507091018 47 315 2.6 7.0 0.00 0.46 0.16 92 1006.0
20260507090538 48 315 2.6 8.7 0.00 0.46 0.16 93 1005.8
20260507090019 48 315 1.7 5.2 0.00 0.46 0.16 93 1005.8
20260507085519 48 315 2.6 7.0 0.00 0.46 0.16 93 1005.7
20260507085020 48 315 2.6 5.2 0.00 0.46 0.16 93 1006.2
20260507084518 48 315 3.5 7.0 0.00 0.46 0.16 93 1006.1
20260507084022 48 315 4.3 10.4 0.00 0.46 0.16 93 1005.9
20260507083518 48 315 4.3 9.6 0.00 0.46 0.16 94 1005.7
20260507083019 48 315 4.3 13.0 0.00 0.46 0.16 95 1005.4
20260507082518 48 315 5.2 11.3 0.00 0.46 0.16 95 1005.4
20260507082020 49 315 2.6 9.6 0.00 0.46 0.16 96 1005.8
20260507081517 49 338 2.6 8.7 0.00 0.46 0.16 97 1006.0
20260507081018 49 293 1.7 7.0 0.00 0.46 0.16 97 1005.9
20260507080519 49 293 1.7 5.2 0.00 0.46 0.16 97 1005.5
20260507080030 49 315 1.7 4.3 0.00 0.46 0.16 97 1005.3
20260507075520 49 315 2.6 6.1 0.00 0.46 0.16 97 1005.5
20260507075037 49 315 1.7 4.3 0.00 0.46 0.16 97 1005.1
20260507074517 49 293 1.7 3.5 0.00 0.46 0.16 97 1005.6
20260507074018 50 315 0.9 3.5 0.00 0.46 0.16 97 1005.4
20260507073517 50 315 0.9 3.5 0.00 0.46 0.16 97 1005.5
20260507073018 50 315 1.7 3.5 0.00 0.46 0.16 97 1005.3
20260507072539 50 293 0.9 2.6 0.00 0.46 0.16 97 1005.2
20260507072017 50 293 0.9 4.3 0.00 0.46 0.16 98 1005.4
20260507071519 50 315 0.9 1.7 0.00 0.46 0.16 98 1005.2
20260507071019 50 293 0.9 2.6 0.00 0.46 0.16 98 1005.1
20260507070517 50 293 0.9 1.7 0.00 0.46 0.16 98 1005.2
20260507070018 50 293 1.7 6.1 0.00 0.46 0.16 97 1005.2
20260507065518 50 293 1.7 4.3 0.00 0.46 0.16 98 1005.1
20260507065019 51 293 0.9 4.3 0.00 0.46 0.16 98 1004.7
20260507064519 51 0.0 1.7 0.01 0.46 0.16 98 1004.6
20260507064058 51 0.0 1.7 0.01 0.46 0.16 98 1004.8
20260507063518 51 315 0.9 3.5 0.01 0.46 0.16 98 1004.9
20260507063019 51 0.0 1.7 0.01 0.46 0.16 98 1004.6
20260507062518 51 0.0 0.0 0.01 0.46 0.16 98 1004.5
20260507062018 51 0.0 0.9 0.01 0.46 0.16 98 1004.4
20260507061537 51 293 0.9 4.3 0.01 0.46 0.16 98 1004.5
20260507061017 51 0.0 2.6 0.01 0.46 0.16 98 1004.6
20260507060540 51 315 1.7 4.3 0.01 0.46 0.16 98 1004.5